Time,TemperatureF,DewpointF,PressureIn,WindDirection,WindDirectionDegrees,WindSpeedMPH,WindSpeedGustMPH,Humidity,HourlyPrecipIn,Conditions,Clouds,dailyrainin,SoftwareType,DateUTC
2013-06-30 00:00:00,59.9,58.8,29.91,ESE,112,0.0,-999.0,96,-99.99,,,0.00,Acu-Link.com,2013-06-30 07:00:00,
2013-06-30 00:15:00,59.5,58.4,29.91,ESE,112,0.0,-999.0,96,-99.99,,,0.00,Acu-Link.com,2013-06-30 07:15:00,
2013-06-30 00:31:00,59.4,58.8,29.92,ESE,112,0.0,-999.0,98,-99.99,,,0.00,Acu-Link.com,2013-06-30 07:31:00,
2013-06-30 00:46:00,59.0,58.4,29.90,ESE,112,0.0,-999.0,98,-99.99,,,0.00,Acu-Link.com,2013-06-30 07:46:00,
2013-06-30 01:01:00,58.8,58.2,29.90,ESE,112,0.0,-999.0,98,-99.99,,,0.00,Acu-Link.com,2013-06-30 08:01:00,
2013-06-30 01:17:00,58.6,58.0,29.91,ESE,112,0.0,-999.0,98,-99.99,,,0.00,Acu-Link.com,2013-06-30 08:17:00,
2013-06-30 01:32:00,58.5,57.9,29.90,ESE,112,0.0,-999.0,98,-99.99,,,0.00,Acu-Link.com,2013-06-30 08:32:00,
2013-06-30 01:47:00,58.1,57.5,29.90,ESE,112,0.0,-999.0,98,-99.99,,,0.00,Acu-Link.com,2013-06-30 08:47:00,
2013-06-30 02:02:00,57.9,57.3,29.89,ESE,112,0.0,-999.0,98,-99.99,,,0.00,Acu-Link.com,2013-06-30 09:02:00,
2013-06-30 02:17:00,57.7,57.1,29.89,ESE,112,0.0,-999.0,98,-99.99,,,0.00,Acu-Link.com,2013-06-30 09:17:00,
2013-06-30 02:32:00,57.7,57.1,29.90,ESE,112,0.0,-999.0,98,-99.99,,,0.00,Acu-Link.com,2013-06-30 09:32:00,
2013-06-30 02:47:00,57.7,57.1,29.89,ESE,112,0.0,-999.0,98,-99.99,,,0.00,Acu-Link.com,2013-06-30 09:47:00,
2013-06-30 03:02:00,58.8,58.2,29.89,North,0,0.0,-999.0,98,-99.99,,,0.00,Acu-Link.com,2013-06-30 10:02:00,
2013-06-30 03:18:00,59.0,58.4,29.89,ESE,112,0.0,-999.0,98,-99.99,,,0.00,Acu-Link.com,2013-06-30 10:18:00,
2013-06-30 03:33:00,59.2,58.6,29.89,East,90,0.0,-999.0,98,-99.99,,,0.00,Acu-Link.com,2013-06-30 10:33:00,
2013-06-30 03:48:00,59.2,58.6,29.89,NNE,22,0.0,-999.0,98,-99.99,,,0.00,Acu-Link.com,2013-06-30 10:48:00,
2013-06-30 04:04:00,59.2,58.6,29.90,ENE,67,0.0,-999.0,98,-99.99,,,0.00,Acu-Link.com,2013-06-30 11:04:00,
2013-06-30 04:19:00,59.2,58.6,29.89,ENE,67,0.0,-999.0,98,-99.99,,,0.00,Acu-Link.com,2013-06-30 11:19:00,
2013-06-30 04:34:00,59.0,58.4,29.89,South,180,0.0,-999.0,98,-99.99,,,0.00,Acu-Link.com,2013-06-30 11:34:00,
2013-06-30 04:49:00,59.0,58.4,29.89,ESE,112,0.0,-999.0,98,-99.99,,,0.00,Acu-Link.com,2013-06-30 11:49:00,
2013-06-30 05:05:00,59.0,58.4,29.91,East,90,0.0,-999.0,98,-99.99,,,0.00,Acu-Link.com,2013-06-30 12:05:00,
2013-06-30 05:20:00,59.0,58.4,29.90,SSW,202,0.0,-999.0,98,-99.99,,,0.00,Acu-Link.com,2013-06-30 12:20:00,
2013-06-30 05:35:00,59.0,58.4,29.89,ESE,112,0.0,-999.0,98,-99.99,,,0.00,Acu-Link.com,2013-06-30 12:35:00,
2013-06-30 05:50:00,58.8,58.2,29.90,SE,135,0.0,-999.0,98,-99.99,,,0.00,Acu-Link.com,2013-06-30 12:50:00,
2013-06-30 06:06:00,58.8,58.2,29.90,SW,225,0.0,-999.0,98,-99.99,,,0.00,Acu-Link.com,2013-06-30 13:06:00,
2013-06-30 06:22:00,59.0,58.4,29.90,NE,45,0.0,-999.0,98,-99.99,,,0.00,Acu-Link.com,2013-06-30 13:22:00,
2013-06-30 06:37:00,58.8,58.2,29.91,ESE,112,0.0,-999.0,98,-99.99,,,0.00,Acu-Link.com,2013-06-30 13:37:00,
2013-06-30 06:52:00,59.0,58.4,29.90,ESE,112,0.0,-999.0,98,-99.99,,,0.00,Acu-Link.com,2013-06-30 13:52:00,
2013-06-30 07:08:00,59.5,58.9,29.92,ESE,112,0.0,-999.0,98,-99.99,,,0.00,Acu-Link.com,2013-06-30 14:08:00,
2013-06-30 07:23:00,59.9,59.3,29.90,SSE,157,0.0,-999.0,98,-99.99,,,0.00,Acu-Link.com,2013-06-30 14:23:00,
2013-06-30 07:38:00,60.1,59.5,29.91,South,180,0.0,-999.0,98,-99.99,,,0.00,Acu-Link.com,2013-06-30 14:38:00,
2013-06-30 07:53:00,60.3,59.2,29.90,SW,225,2.2,-999.0,96,-99.99,,,0.00,Acu-Link.com,2013-06-30 14:53:00,
2013-06-30 08:09:00,61.2,59.8,29.90,SW,225,1.1,-999.0,95,-99.99,,,0.00,Acu-Link.com,2013-06-30 15:09:00,
2013-06-30 08:24:00,62.4,60.3,29.90,ESE,112,0.0,-999.0,93,-99.99,,,0.00,Acu-Link.com,2013-06-30 15:24:00,
2013-06-30 08:39:00,62.1,60.0,29.90,West,270,0.0,-999.0,93,-99.99,,,0.00,Acu-Link.com,2013-06-30 15:39:00,
2013-06-30 08:55:00,62.1,60.0,29.90,NNW,337,0.0,-999.0,93,-99.99,,,0.00,Acu-Link.com,2013-06-30 15:55:00,
2013-06-30 09:10:00,62.1,60.4,29.91,SW,225,0.0,-999.0,94,-99.99,,,0.00,Acu-Link.com,2013-06-30 16:10:00,
2013-06-30 09:25:00,63.7,61.3,29.92,ENE,67,0.0,-999.0,92,-99.99,,,0.00,Acu-Link.com,2013-06-30 16:25:00,
2013-06-30 09:40:00,63.9,61.5,29.91,East,90,1.7,-999.0,92,-99.99,,,0.00,Acu-Link.com,2013-06-30 16:40:00,
2013-06-30 09:56:00,66.0,62.0,29.89,ESE,112,3.2,-999.0,87,-99.99,,,0.00,Acu-Link.com,2013-06-30 16:56:00,
2013-06-30 10:11:00,68.7,63.7,29.88,WNW,292,2.2,-999.0,84,-99.99,,,0.00,Acu-Link.com,2013-06-30 17:11:00,
2013-06-30 10:26:00,71.1,65.0,29.90,SW,225,1.7,-999.0,81,-99.99,,,0.00,Acu-Link.com,2013-06-30 17:26:00,
2013-06-30 10:41:00,70.7,64.2,29.88,South,180,3.2,-999.0,80,-99.99,,,0.00,Acu-Link.com,2013-06-30 17:41:00,
2013-06-30 10:57:00,73.8,66.5,29.87,SE,135,2.2,-999.0,78,-99.99,,,0.00,Acu-Link.com,2013-06-30 17:57:00,
2013-06-30 11:12:00,73.6,64.4,29.87,West,270,3.2,-999.0,73,-99.99,,,0.00,Acu-Link.com,2013-06-30 18:12:00,
2013-06-30 11:27:00,76.8,65.0,29.86,NE,45,2.2,-999.0,67,-99.99,,,0.00,Acu-Link.com,2013-06-30 18:27:00,
2013-06-30 11:43:00,76.8,65.8,29.88,SW,225,6.3,-999.0,69,-99.99,,,0.00,Acu-Link.com,2013-06-30 18:43:00,
2013-06-30 11:58:00,76.5,65.1,29.86,West,270,5.3,-999.0,68,-99.99,,,0.00,Acu-Link.com,2013-06-30 18:58:00,
2013-06-30 12:13:00,76.6,65.2,29.87,West,270,5.3,-999.0,68,-99.99,,,0.00,Acu-Link.com,2013-06-30 19:13:00,
2013-06-30 12:28:00,77.9,64.7,29.85,SSW,202,4.2,-999.0,64,-99.99,,,0.00,Acu-Link.com,2013-06-30 19:28:00,
2013-06-30 12:43:00,79.5,64.9,29.87,WNW,292,7.3,-999.0,61,-99.99,,,0.00,Acu-Link.com,2013-06-30 19:43:00,
2013-06-30 12:59:00,79.7,65.0,29.85,SSW,202,4.7,-999.0,61,-99.99,,,0.00,Acu-Link.com,2013-06-30 19:59:00,
2013-06-30 13:14:00,79.9,63.8,29.85,NNE,22,7.8,-999.0,58,-99.99,,,0.00,Acu-Link.com,2013-06-30 20:14:00,
2013-06-30 13:29:00,80.4,64.7,29.85,West,270,4.2,-999.0,59,-99.99,,,0.00,Acu-Link.com,2013-06-30 20:29:00,
2013-06-30 13:45:00,80.2,63.1,29.85,West,270,4.2,-999.0,56,-99.99,,,0.00,Acu-Link.com,2013-06-30 20:45:00,
2013-06-30 14:00:00,81.3,65.1,29.85,West,270,5.3,-999.0,58,-99.99,,,0.00,Acu-Link.com,2013-06-30 21:00:00,
2013-06-30 14:15:00,81.9,64.6,29.84,North,0,3.7,-999.0,56,-99.99,,,0.00,Acu-Link.com,2013-06-30 21:15:00,
2013-06-30 14:30:00,80.8,64.6,29.85,NNE,22,4.7,-999.0,58,-99.99,,,0.00,Acu-Link.com,2013-06-30 21:30:00,
2013-06-30 14:46:00,82.9,66.1,29.84,NW,315,1.1,-999.0,57,-99.99,,,0.00,Acu-Link.com,2013-06-30 21:46:00,
2013-06-30 15:01:00,80.8,63.6,29.85,SSW,202,3.2,-999.0,56,-99.99,,,0.00,Acu-Link.com,2013-06-30 22:01:00,
2013-06-30 15:16:00,81.7,63.9,29.85,North,0,3.2,-999.0,55,-99.99,,,0.00,Acu-Link.com,2013-06-30 22:16:00,
2013-06-30 15:32:00,81.5,64.3,29.82,SSW,202,3.2,-999.0,56,-99.99,,,0.00,Acu-Link.com,2013-06-30 22:32:00,
2013-06-30 15:47:00,81.7,63.9,29.83,SW,225,3.7,-999.0,55,-99.99,,,0.00,Acu-Link.com,2013-06-30 22:47:00,
2013-06-30 16:02:00,80.6,63.4,29.83,SW,225,2.2,-999.0,56,-99.99,,,0.00,Acu-Link.com,2013-06-30 23:02:00,
2013-06-30 16:17:00,79.3,62.2,29.83,ENE,67,3.2,-999.0,56,-99.99,,,0.00,Acu-Link.com,2013-06-30 23:17:00,
2013-06-30 16:32:00,80.4,63.2,29.82,WNW,292,4.2,-999.0,56,-99.99,,,0.00,Acu-Link.com,2013-06-30 23:32:00,
2013-06-30 16:47:00,79.9,62.8,29.82,NE,45,4.2,-999.0,56,-99.99,,,0.00,Acu-Link.com,2013-06-30 23:47:00,
2013-06-30 17:03:00,79.2,61.6,29.82,NE,45,5.3,-999.0,55,-99.99,,,0.00,Acu-Link.com,2013-07-01 00:03:00,
2013-06-30 17:18:00,78.3,61.3,29.83,NNE,22,3.7,-999.0,56,-99.99,,,0.00,Acu-Link.com,2013-07-01 00:18:00,
2013-06-30 17:33:00,79.3,61.2,29.82,NNE,22,1.7,-999.0,54,-99.99,,,0.00,Acu-Link.com,2013-07-01 00:33:00,
2013-06-30 17:48:00,78.1,61.1,29.84,NNE,22,6.8,-999.0,56,-99.99,,,0.00,Acu-Link.com,2013-07-01 00:48:00,
2013-06-30 18:03:00,79.2,60.6,29.83,NNE,22,7.3,-999.0,53,-99.99,,,0.00,Acu-Link.com,2013-07-01 01:03:00,
2013-06-30 18:19:00,78.3,60.3,29.82,WNW,292,2.7,-999.0,54,-99.99,,,0.00,Acu-Link.com,2013-07-01 01:19:00,
2013-06-30 18:34:00,79.5,60.8,29.82,WNW,292,4.7,-999.0,53,-99.99,,,0.00,Acu-Link.com,2013-07-01 01:34:00,
2013-06-30 18:49:00,78.4,60.9,29.83,SSE,157,3.2,-999.0,55,-99.99,,,0.00,Acu-Link.com,2013-07-01 01:49:00,
2013-06-30 19:05:00,77.2,61.7,29.83,ESE,112,1.1,-999.0,59,-99.99,,,0.00,Acu-Link.com,2013-07-01 02:05:00,
2013-06-30 19:20:00,75.9,61.0,29.84,NNW,337,2.7,-999.0,60,-99.99,,,0.00,Acu-Link.com,2013-07-01 02:20:00,
2013-06-30 19:35:00,73.4,60.9,29.83,West,270,2.7,-999.0,65,-99.99,,,0.00,Acu-Link.com,2013-07-01 02:35:00,
2013-06-30 19:50:00,73.0,61.4,29.83,North,0,2.7,-999.0,67,-99.99,,,0.00,Acu-Link.com,2013-07-01 02:50:00,
2013-06-30 20:06:00,70.5,60.2,29.85,NE,45,3.7,-999.0,70,-99.99,,,0.00,Acu-Link.com,2013-07-01 03:06:00,
2013-06-30 20:21:00,69.1,59.7,29.85,NNW,337,1.7,-999.0,72,-99.99,,,0.00,Acu-Link.com,2013-07-01 03:21:00,
2013-06-30 20:36:00,68.4,60.2,29.83,NNW,337,1.7,-999.0,75,-99.99,,,0.00,Acu-Link.com,2013-07-01 03:36:00,
2013-06-30 20:52:00,65.8,59.8,29.83,NE,45,3.2,-999.0,81,-99.99,,,0.00,Acu-Link.com,2013-07-01 03:52:00,
2013-06-30 21:07:00,64.6,59.7,29.84,NNW,337,1.1,-999.0,84,-99.99,,,0.00,Acu-Link.com,2013-07-01 04:07:00,
2013-06-30 21:22:00,63.9,59.6,29.86,ESE,112,0.0,-999.0,86,-99.99,,,0.00,Acu-Link.com,2013-07-01 04:22:00,
2013-06-30 21:38:00,63.0,59.4,29.85,NNE,22,0.0,-999.0,88,-99.99,,,0.00,Acu-Link.com,2013-07-01 04:38:00,
2013-06-30 21:53:00,61.9,58.9,29.86,ESE,112,0.0,-999.0,90,-99.99,,,0.00,Acu-Link.com,2013-07-01 04:53:00,
2013-06-30 22:08:00,61.2,58.9,29.87,NE,45,0.0,-999.0,92,-99.99,,,0.00,Acu-Link.com,2013-07-01 05:08:00,
2013-06-30 22:23:00,60.3,58.3,29.86,ESE,112,0.0,-999.0,93,-99.99,,,0.00,Acu-Link.com,2013-07-01 05:23:00,
2013-06-30 22:38:00,59.5,57.8,29.86,East,90,0.0,-999.0,94,-99.99,,,0.00,Acu-Link.com,2013-07-01 05:38:00,
2013-06-30 22:54:00,59.2,57.8,29.85,ESE,112,0.0,-999.0,95,-99.99,,,0.00,Acu-Link.com,2013-07-01 05:54:00,
2013-06-30 23:09:00,58.5,57.1,29.87,East,90,0.0,-999.0,95,-99.99,,,0.00,Acu-Link.com,2013-07-01 06:09:00,
2013-06-30 23:24:00,58.1,57.5,29.87,SSE,157,0.0,-999.0,98,-99.99,,,0.00,Acu-Link.com,2013-07-01 06:24:00,
2013-06-30 23:40:00,57.7,57.1,29.86,East,90,0.0,-999.0,98,-99.99,,,0.00,Acu-Link.com,2013-07-01 06:40:00,
2013-06-30 23:55:00,57.9,57.3,29.88,ENE,67,0.0,-999.0,98,-99.99,,,0.00,Acu-Link.com,2013-07-01 06:55:00,